PDT,Max TemperatureF,Mean TemperatureF,Min TemperatureF,Max Dew PointF,MeanDew PointF,Min DewpointF,Max Humidity, Mean Humidity, Min Humidity, Max Sea Level PressureIn, Mean Sea Level PressureIn, Min Sea Level PressureIn, Max VisibilityMiles, Mean VisibilityMiles, Min VisibilityMiles, Max Wind SpeedMPH, Mean Wind SpeedMPH, Max Gust SpeedMPH,PrecipitationIn, CloudCover, Events, WindDirDegrees
2012-4-1,64,54,44,43,35,25,93,49,24,30.02,29.97,29.66,10,9,7,14,5,23,0.00,3,,286
2012-4-2,73,63,53,28,23,18,35,21,12,30.05,29.96,29.89,10,10,10,23,19,34,0.00,2,,312
2012-4-3,78,61,44,34,29,23,61,26,14,30.02,29.97,29.92,10,10,10,14,4,18,0.00,3,,239
2012-4-4,77,62,46,39,30,21,71,31,14,29.99,29.93,29.87,10,10,10,14,4,,0.00,3,,259
2012-4-5,68,56,44,45,39,34,71,48,32,29.98,29.91,29.88,10,9,7,14,4,23,0.00,3,,236
2012-4-6,75,57,39,28,16,9,65,21,8,30.09,30.04,29.99,10,10,10,14,4,18,0.00,1,,357
2012-4-7,84,62,41,52,20,10,45,18,6,30.08,30.03,29.96,10,10,10,14,2,23,0.00,0,,233
2012-4-8,86,64,42,43,24,18,53,19,9,30.05,30.02,29.97,10,10,10,14,2,21,0.00,3,,238
2012-4-9,86,65,44,39,27,21,57,22,10,30.00,29.95,29.89,10,10,10,16,3,23,0.00,2,,257
2012-4-10,77,60,42,43,32,27,61,36,18,29.94,29.89,29.81,10,8,5,22,5,26,0.00,1,,257
2012-4-11,60,54,48,48,44,39,94,69,45,30.23,30.03,29.92,10,8,2,14,8,21,0.00,7,Rain,229
2012-4-12,60,54,48,43,40,36,82,57,39,30.19,30.13,30.09,10,10,7,16,4,21,0.00,6,,244
2012-4-13,55,50,44,46,44,41,100,80,67,29.95,29.82,29.75,10,8,3,17,8,24,0.00,8,Rain,180
2012-4-14,55,50,44,37,35,34,76,56,44,30.00,29.93,29.84,10,10,10,12,4,17,0.00,6,,227
2012-4-15,69,54,39,46,40,36,87,47,31,30.17,30.12,30.07,10,10,10,12,3,,0.00,0,,263
2012-4-16,82,65,48,43,37,32,76,34,16,30.17,30.11,30.05,10,10,10,14,2,18,0.00,1,,261
2012-4-17,84,66,48,45,37,30,82,30,15,30.07,30.02,29.96,10,10,10,12,3,17,0.00,1,,253
2012-4-18,82,66,50,46,40,34,76,34,17,30.00,29.96,29.91,10,9,1,15,6,,0.00,4,,248
2012-4-19,84,68,53,52,49,46,82,46,29,29.97,29.94,29.89,10,7,5,12,2,,0.00,3,,241
2012-4-20,96,74,53,54,44,36,88,33,13,29.99,29.94,29.87,10,10,10,16,3,23,0.00,0,,250
2012-4-21,95,76,57,54,48,43,72,38,17,29.95,29.90,29.85,10,10,10,14,3,17,0.00,0,,248
2012-4-22,86,70,55,55,54,54,94,55,33,29.96,29.93,29.89,6,4,2,15,5,18,0.00,0,,248
2012-4-23,60,58,55,55,53,52,100,86,77,30.02,30.01,29.99,6,3,1,9,6,,0.00,8,,249
2012-4-24,75,64,53,50,47,45,88,54,34,30.07,30.01,29.94,10,6,3,9,4,,0.00,7,,244
2012-4-25,87,72,57,52,47,41,72,48,19,30.01,29.88,29.76,10,8,5,28,4,37,0.00,6,,236
2012-4-26,60,56,53,55,52,52,94,83,72,30.05,30.00,29.91,10,8,2,9,5,,0.00,7,Rain,38
2012-4-27,73,63,53,52,49,48,94,58,41,30.08,30.01,29.94,10,10,7,14,4,,0.00,2,,240
2012-4-28,87,68,50,50,44,28,87,41,12,29.92,29.83,29.74,10,9,8,17,4,,0.00,0,,258
2012-4-29,84,68,51,54,50,46,88,52,27,29.91,29.86,29.81,9,7,5,17,4,23,0.00,0,,249
2012-4-30,78,68,57,54,53,52,88,60,39,29.97,29.94,29.91,5,4,3,16,5,,0.00,2,,247